This is the latest recevied weather packets stored in our database for station/object W1HVD. If no packets are shown the sender has not sent any weather packets the latest 10 day(s).
| Time | Temp. | Humidity | Pressure | Rain* | Wind** | Luminosity | Snow |
|---|---|---|---|---|---|---|---|
| 1777404873 | 15° C | 39% | 1021 hPa | 0 mm | - | 515 W/m² | - |
| 1777404570 | 15° C | 39% | 1021.1 hPa | 0 mm | - | 525 W/m² | - |
| 1777404267 | 15° C | 40% | 1021 hPa | 0 mm | - | 538 W/m² | - |
| 1777403962 | 15.56° C | 38% | 1021.1 hPa | 0 mm | - | 552 W/m² | - |
| 1777403662 | 15° C | 40% | 1021.1 hPa | 0 mm | - | 561 W/m² | - |
| 1777403362 | 15.56° C | 39% | 1021 hPa | 0 mm | - | 575 W/m² | - |
| 1777403061 | 15° C | 39% | 1021.3 hPa | 0 mm | - | 604 W/m² | - |
| 1777402758 | 15° C | 40% | 1021.2 hPa | 0 mm | - | 535 W/m² | - |
| 1777402454 | 15.56° C | 38% | 1021.2 hPa | 0 mm | - | 594 W/m² | - |
| 1777402152 | 15.56° C | 39% | 1021.4 hPa | 0 mm | - | 590 W/m² | - |
| 1777401847 | 15.56° C | 39% | 1021.6 hPa | 0 mm | - | 599 W/m² | - |
| 1777401546 | 15° C | 38% | 1021.5 hPa | 0 mm | - | 588 W/m² | - |
| 1777401242 | 15° C | 41% | 1021.7 hPa | 0 mm | - | 612 W/m² | - |
| 1777400937 | 15.56° C | 41% | 1021.5 hPa | 0 mm | - | 616 W/m² | - |
| 1777400633 | 15.56° C | 47% | 1021.5 hPa | 0 mm | - | 644 W/m² | - |
| 1777400332 | 15.56° C | 42% | 1021.6 hPa | 0 mm | - | 665 W/m² | - |
| 1777400027 | 15.56° C | 42% | 1021.5 hPa | 0 mm | - | 642 W/m² | - |
| 1777399725 | 15° C | 43% | 1021.9 hPa | 0 mm | - | 672 W/m² | - |
| 1777399421 | 15.56° C | 44% | 1021.9 hPa | 0 mm | - | 664 W/m² | - |
| 1777399119 | 15.56° C | 42% | 1021.9 hPa | 0 mm | - | 682 W/m² | - |
| 1777398816 | 15.56° C | 42% | 1021.5 hPa | 0 mm | - | 700 W/m² | - |
* Rain latest hour (hover to see other rain measurements)
** Current wind speed in m/s (hover to see current wind gust speed)